Chickasha, OK

11:14 PM CDT on August 29, 2016 (GMT -0500)
Chickasha Municipal

Weather History for KCHK - January, 2014

Change the Weather History Date:

Saturday, January 18, 2014

  Actual Average Record
Temperature  
Mean Temperature 50 °F -  
Max Temperature 66 °F 49 °F 74 °F (1964)
Min Temperature 33 °F 26 °F 6 °F (1977)
Degree Days  
Heating Degree Days 16    
Moisture  
Dew Point 25 °F    
Average Humidity 47    
Maximum Humidity 70    
Minimum Humidity 27    
Precipitation  
Precipitation 0.00 in - - ()
Sea Level Pressure  
Sea Level Pressure 30.09 in    
Wind  
Wind Speed 9 mph (WNW)    
Max Wind Speed 22 mph    
Max Gust Speed 26 mph    
Visibility 10 miles    
Events      
Averages and records for this station are not official NWS values.
T = Trace of Precipitation, MM = Missing Value Source: NWS Daily Summary

Daily Weather History Graph

Daily Weather History Graph

Search for Another Location

Airport or City:

Trip Planner

Search our weather history database for the weather conditions in past years. The results will help you decide how hot, cold, wet, or windy it might be!

Date:

Astronomy

Jan. 18, 2014 Rise Set
Actual Time 7:38 AM CST 5:46 PM CST
Civil Twilight 7:11 AM CST 6:13 PM CST
Nautical Twilight 6:40 AM CST 6:44 PM CST
Astronomical Twilight 6:09 AM CST 7:15 PM CST
Moon 8:21 PM CST (1/18) 8:46 AM CST (1/18)
Length of Visible Light 11h 02m
Length of Day
10h 07m
Waning Gibbous, 94% of the Moon is Illuminated
Jan 18
Waning Gibbous
Jan 23
Last Quarter
Jan 30
New
Feb 6
First Quarter
Feb 14
Full

Hourly Weather History & Observations

Time (CST) Temp. Windchill Dew Point Humidity Pressure Visibility Wind Dir Wind Speed Gust Speed Precip Events Conditions
12:15 AM 39.2 °F 35.0 °F 19.4 °F 45% 30.09 in 10.0 mi WSW 5.8 mph - N/A   Clear
12:35 AM 41.0 °F 35.8 °F 21.2 °F 45% 30.09 in 10.0 mi SW 8.1 mph - N/A   Clear
12:55 AM 41.0 °F 38.0 °F 21.2 °F 45% 30.09 in 10.0 mi WSW 4.6 mph - N/A   Clear
1:15 AM 41.0 °F 36.4 °F 21.2 °F 45% 30.09 in 10.0 mi West 6.9 mph - N/A   Clear
1:35 AM 41.0 °F 36.4 °F 21.2 °F 45% 30.09 in 10.0 mi West 6.9 mph - N/A   Clear
1:55 AM 39.2 °F 33.0 °F 21.2 °F 49% 30.09 in 10.0 mi WSW 9.2 mph - N/A   Clear
2:15 AM 37.4 °F 32.8 °F 21.2 °F 52% 30.09 in 10.0 mi WSW 5.8 mph - N/A   Clear
2:35 AM 37.4 °F 32.8 °F 21.2 °F 52% 30.09 in 10.0 mi WSW 5.8 mph - N/A   Clear
2:55 AM 37.4 °F 32.1 °F 21.2 °F 52% 30.09 in 10.0 mi WSW 6.9 mph - N/A   Clear
3:15 AM 37.4 °F 31.4 °F 21.2 °F 52% 30.09 in 10.0 mi WSW 8.1 mph - N/A   Clear
3:35 AM 35.6 °F 29.2 °F 21.2 °F 56% 30.08 in 10.0 mi WSW 8.1 mph - N/A   Clear
3:55 AM 35.6 °F 29.2 °F 21.2 °F 56% 30.08 in 10.0 mi SW 8.1 mph - N/A   Clear
4:15 AM 35.6 °F 29.2 °F 21.2 °F 56% 30.08 in 10.0 mi WSW 8.1 mph - N/A   Clear
4:35 AM 33.8 °F 28.6 °F 21.2 °F 60% 30.07 in 10.0 mi WSW 5.8 mph - N/A   Clear
4:55 AM 33.8 °F 26.4 °F 21.2 °F 60% 30.06 in 10.0 mi WSW 9.2 mph - N/A   Clear
5:15 AM 37.4 °F 30.3 °F 23.0 °F 56% 30.05 in 10.0 mi SW 10.4 mph - N/A   Clear
5:35 AM 37.4 °F 29.8 °F 21.2 °F 52% 30.05 in 10.0 mi WSW 11.5 mph - N/A   Clear
5:55 AM 37.4 °F 30.8 °F 21.2 °F 52% 30.05 in 10.0 mi WSW 9.2 mph - N/A   Clear
6:15 AM 35.6 °F 29.2 °F 21.2 °F 56% 30.04 in 10.0 mi WSW 8.1 mph - N/A   Clear
6:35 AM 35.6 °F 30.7 °F 23.0 °F 60% 30.05 in 10.0 mi West 5.8 mph - N/A   Clear
6:55 AM 35.6 °F 29.9 °F 23.0 °F 60% 30.04 in 10.0 mi SW 6.9 mph - N/A   Clear
7:15 AM 33.8 °F 27.0 °F 21.2 °F 60% 30.04 in 10.0 mi WSW 8.1 mph - N/A   Clear
7:35 AM 33.8 °F 28.6 °F 21.2 °F 60% 30.04 in 10.0 mi WSW 5.8 mph - N/A   Clear
7:55 AM 33.8 °F 29.6 °F 23.0 °F 65% 30.04 in 10.0 mi West 4.6 mph - N/A   Clear
8:15 AM 33.8 °F 29.6 °F 23.0 °F 65% 30.04 in 10.0 mi SW 4.6 mph - N/A   Clear
8:35 AM 37.4 °F 32.8 °F 24.8 °F 60% 30.05 in 10.0 mi WSW 5.8 mph - N/A   Clear
8:55 AM 37.4 °F 33.8 °F 24.8 °F 60% 30.05 in 10.0 mi WSW 4.6 mph - N/A   Clear
9:15 AM 41.0 °F 39.0 °F 26.6 °F 57% 30.06 in 7.0 mi West 3.5 mph - N/A   Clear
9:35 AM 42.8 °F 40.1 °F 28.4 °F 57% 30.06 in 10.0 mi West 4.6 mph - N/A   Clear
9:55 AM 48.2 °F - 28.4 °F 46% 30.08 in 10.0 mi West 15.0 mph - N/A   Clear
10:15 AM 50.0 °F - 28.4 °F 43% 30.08 in 10.0 mi West 15.0 mph 21.9 mph N/A   Clear
10:35 AM 51.8 °F - 28.4 °F 41% 30.08 in 10.0 mi West 11.5 mph - N/A   Clear
10:55 AM 53.6 °F - 28.4 °F 38% 30.08 in 10.0 mi West 9.2 mph - N/A   Clear
11:15 AM 55.4 °F - 30.2 °F 38% 30.08 in 10.0 mi WNW 9.2 mph - N/A   Clear
11:35 AM 59.0 °F - 30.2 °F 34% 30.07 in 10.0 mi WNW 9.2 mph - N/A   Clear
11:55 AM 60.8 °F - 30.2 °F 31% 30.06 in 10.0 mi NW 15.0 mph 18.4 mph N/A   Clear
12:15 PM 62.6 °F - 30.2 °F 30% 30.05 in 10.0 mi NNW 21.9 mph - N/A   Clear
12:35 PM 62.6 °F - 30.2 °F 30% 30.03 in 10.0 mi NNW 19.6 mph 25.3 mph N/A   Clear
12:55 PM 62.6 °F - 30.2 °F 30% 30.02 in 10.0 mi North 18.4 mph 21.9 mph N/A   Clear
1:15 PM 66.2 °F - 32.0 °F 28% 30.02 in 10.0 mi NNW 17.3 mph 21.9 mph N/A   Clear
1:35 PM 64.4 °F - 30.2 °F 28% 30.01 in 10.0 mi NNW 17.3 mph 24.2 mph N/A   Clear
1:55 PM 64.4 °F - 32.0 °F 30% 30.01 in 10.0 mi NNW 15.0 mph 18.4 mph N/A   Clear
2:15 PM 66.2 °F - 32.0 °F 28% 30.00 in 10.0 mi NNW 16.1 mph 25.3 mph N/A   Clear
2:35 PM 64.4 °F - 32.0 °F 30% 30.01 in 10.0 mi NNW 19.6 mph 23.0 mph N/A   Clear
2:55 PM 64.4 °F - 32.0 °F 30% 30.02 in 10.0 mi North 18.4 mph 23.0 mph N/A   Clear
3:15 PM 62.6 °F - 30.2 °F 30% 30.02 in 10.0 mi NNW 18.4 mph 25.3 mph N/A   Clear
3:35 PM 62.6 °F - 30.2 °F 30% 30.03 in 10.0 mi NNW 21.9 mph - N/A   Clear
3:55 PM 62.6 °F - 30.2 °F 30% 30.03 in 10.0 mi NNW 21.9 mph 26.5 mph N/A   Clear
4:15 PM 62.6 °F - 28.4 °F 27% 30.04 in 10.0 mi NNW 20.7 mph 25.3 mph N/A   Clear
4:35 PM 60.8 °F - 28.4 °F 29% 30.05 in 10.0 mi NNW 20.7 mph 25.3 mph N/A   Clear
4:55 PM 59.0 °F - 28.4 °F 31% 30.06 in 10.0 mi NNW 19.6 mph - N/A   Clear
5:15 PM 59.0 °F - 28.4 °F 31% 30.08 in 10.0 mi North 13.8 mph 21.9 mph N/A   Clear
5:35 PM 55.4 °F - 28.4 °F 36% 30.09 in 10.0 mi North 15.0 mph - N/A   Clear
5:55 PM 53.6 °F - 26.6 °F 35% 30.10 in 10.0 mi North 12.7 mph - N/A   Clear
6:15 PM 48.2 °F - 26.6 °F 43% 30.11 in 10.0 mi North 11.5 mph - N/A   Clear
6:35 PM 46.4 °F 41.5 °F 26.6 °F 46% 30.12 in 10.0 mi North 10.4 mph - N/A   Clear
6:55 PM 42.8 °F 37.5 °F 24.8 °F 49% 30.13 in 10.0 mi NNW 9.2 mph - N/A   Clear
7:15 PM 42.8 °F 37.5 °F 23.0 °F 46% 30.13 in 10.0 mi NNW 9.2 mph - N/A   Clear
7:35 PM 41.0 °F 35.2 °F 23.0 °F 49% 30.14 in 10.0 mi North 9.2 mph - N/A   Clear
7:55 PM 39.2 °F 32.0 °F 24.8 °F 56% 30.15 in 10.0 mi North 11.5 mph - N/A   Clear
8:15 PM 41.0 °F 33.9 °F 26.6 °F 57% 30.16 in 10.0 mi North 12.7 mph - N/A   Clear
8:35 PM 42.8 °F 36.6 °F 24.8 °F 49% 30.16 in 10.0 mi North 11.5 mph - N/A   Clear
8:55 PM 41.0 °F 35.2 °F 24.8 °F 53% 30.18 in 10.0 mi North 9.2 mph - N/A   Clear
9:15 PM 37.4 °F 30.3 °F 24.8 °F 60% 30.18 in 10.0 mi North 10.4 mph - N/A   Clear
9:35 PM 37.4 °F 34.9 °F 24.8 °F 60% 30.20 in 10.0 mi WNW 3.5 mph - N/A   Clear
9:55 PM 35.6 °F 30.7 °F 23.0 °F 60% 30.20 in 10.0 mi NNW 5.8 mph - N/A   Clear
10:15 PM 35.6 °F 30.7 °F 23.0 °F 60% 30.21 in 10.0 mi WNW 5.8 mph - N/A   Clear
10:35 PM 35.6 °F 31.7 °F 24.8 °F 65% 30.22 in 10.0 mi WNW 4.6 mph - N/A   Clear
10:55 PM 35.6 °F 31.7 °F 23.0 °F 60% 30.23 in 10.0 mi NW 4.6 mph - N/A   Clear
11:15 PM 35.6 °F 29.9 °F 23.0 °F 60% 30.23 in 10.0 mi NW 6.9 mph - N/A   Clear
11:35 PM 33.8 °F 28.6 °F 23.0 °F 65% 30.23 in 10.0 mi NW 5.8 mph - N/A   Clear
11:55 PM 33.8 °F 26.4 °F 24.8 °F 70% 30.22 in 10.0 mi North 9.2 mph - N/A   Clear